This demonstration page uses our WeatherBlox Daily Observations layout. Learn more.

Left ArrowRight Arrow

34.16533, -84.80231

Hourly Observations for July 15, 2017

Temp ( °F °C ) Dew Point ( °F °C ) Humidity (%) Winds ( mph kmh ) Pressure ( in mb ) Visibility ( mi km ) Precip ( " mm )
12:53 am 00:53 Mostly Clear 72 22.2 72 22.2 100 100 N 3 6 30.11 1020 10 16 0.00 0.00
1:53 am 01:53 Clear 71 21.7 71 21.7 100 100 Calm 30.09 1019 8 13 0.00 0.00
2:53 am 02:53 Clear 71 21.7 71 21.7 100 100 Calm 30.08 1019 9 14 0.00 0.00
3:53 am 03:53 Clear 71 21.7 71 21.7 100 100 Calm 30.07 1018 9 14 0.00 0.00
4:17 am 04:17 Partly Cloudy 71 21.7 71 21.7 100 100 Calm 30.09 1019 7 11 0.00 0.00
4:33 am 04:33 Mostly Cloudy 70 21.1 70 21.1 100 100 Calm 30.09 1019 9 14 0.00 0.00
4:46 am 04:46 Mostly Cloudy with Mist and Fog 70 21.1 70 21.1 100 100 Calm 30.09 1019 2 3 0.00 0.00
4:53 am 04:53 Mostly Cloudy with Mist and Fog 70 21.1 70 21.1 100 100 Calm 30.07 1018 3 4 0.00 0.00
4:58 am 04:58 Partly Cloudy 70 21.1 70 21.1 100 100 Calm 30.09 1019 8 13 0.00 0.00
5:53 am 05:53 Mostly Cloudy 69 20.6 69 20.6 100 100 Calm 30.08 1019 7 11 0.00 0.00
6:00 am 06:00 Mostly Cloudy with Mist and Fog 69 20.6 69 20.6 100 100 SE 3 6 30.09 1019 2 3 0.00 0.00
6:10 am 06:10 Mostly Cloudy with Mist and Fog 69 20.6 69 20.6 100 100 Calm 30.09 1019 1 1 0.00 0.00
6:18 am 06:18 Cloudy with Mist and Fog 69 20.6 69 20.6 100 100 Calm 30.09 1019 2 2 0.00 0.00
6:23 am 06:23 Mostly Cloudy with Mist and Fog 69 20.6 69 20.6 100 100 Calm 30.09 1019 3 5 0.00 0.00
6:35 am 06:35 Partly Cloudy 69 20.6 69 20.6 100 100 Calm 30.09 1019 7 11 0.00 0.00
6:53 am 06:53 Sunny 69 20.6 69 20.6 100 100 Calm 30.08 1019 9 14 0.00 0.00
7:12 am 07:12 Partly Cloudy 69 20.6 69 20.6 100 100 Calm 30.09 1019 8 13 0.00 0.00
7:24 am 07:24 Mostly Cloudy with Mist and Fog 70 21.1 70 21.1 100 100 Calm 30.09 1019 3 4 0.00 0.00
7:33 am 07:33 Cloudy with Mist and Fog 70 21.1 70 21.1 100 100 Calm 30.09 1019 1 2 0.00 0.00
7:46 am 07:46 Cloudy with Mist and Fog 71 21.7 71 21.7 100 100 Calm 30.09 1019 3 5 0.00 0.00
7:53 am 07:53 Cloudy with Mist and Fog 71 21.7 71 21.7 100 100 Calm 30.09 1019 6 10 0.00 0.00
8:14 am 08:14 Cloudy with Mist and Fog 71 21.7 71 21.7 100 100 Calm 30.12 1020 3 4 0.00 0.00
8:25 am 08:25 Cloudy with Mist and Fog 71 21.7 71 21.7 100 100 Calm 30.12 1020 4 6 0.00 0.00
8:53 am 08:53 Cloudy 73 22.8 73 22.8 100 100 Calm 30.11 1020 7 11 0.00 0.00
9:53 am 09:53 Cloudy 74 23.3 74 23.3 100 100 Calm 30.11 1020 10 16 0.00 0.00
10:27 am 10:27 Mostly Sunny 78 25.6 75 23.9 90 90 VRB 3 6 30.12 1020 10 16 0.00 0.00
10:53 am 10:53 Sunny 79 26.1 75 23.9 88 88 VRB 3 6 30.10 1019 10 16 0.00 0.00
11:53 am 11:53 Sunny 83 28.3 75 23.9 77 77 Calm 30.08 1019 10 16 0.00 0.00
12:25 pm 12:25 Mostly Cloudy 82 27.8 74 23.3 77 77 VRB 3 6 30.06 1018 10 16 0.00 0.00
12:32 pm 12:32 Mostly Cloudy 84 28.9 75 23.9 74 74 Calm 30.06 1018 10 16 0.00 0.00
12:48 pm 12:48 Mostly Cloudy 84 29 75 24 74 74 VRB 3 6 30.06 1018 10 16 0.00 0.00
12:53 pm 12:53 Mostly Cloudy 85 29.4 75 23.9 72 72 N 3 6 30.07 1018 10 16 0.00 0.00
1:16 pm 13:16 Partly Cloudy 85 29.4 75 23.9 72 72 Calm 30.03 1017 10 16 0.00 0.00
1:53 pm 13:53 Mostly Cloudy 86 30 74 23.3 67 67 NNW 3 6 30.04 1017 10 16 0.00 0.00
2:09 pm 14:09 Partly Cloudy 87 30.6 75 23.9 67 67 Calm 30.03 1017 10 16 0.00 0.00
2:38 pm 14:38 Mostly Cloudy with Nearby Thunderstorms 84 28.9 75 23.9 74 74 VRB 5 7 30.03 1017 10 16 0.00 0.00
2:50 pm 14:50 Mostly Cloudy with Thunderstorms 75 24 72 22 89 89 VRB 7 11 30.06 1018 3 5 0.09 2.29
2:53 pm 14:53 Cloudy with Strong Thunderstorms 73 22.8 71 21.7 94 94 VRB 6 9 30.07 1018 1 2 0.22 5.59
3:00 pm 15:00 Cloudy with Strong Thunderstorms 71 21.7 71 21.7 100 100 N 12 19 30.09 1019 1 1 0.14 3.56
3:24 pm 15:24 Cloudy with Strong Thunderstorms 71 21.7 71 21.7 100 100 Calm 30.09 1019 1 1 0.60 15.24
3:36 pm 15:36 Cloudy with Strong Thunderstorms 71 21.7 71 21.7 100 100 E 3 6 30.09 1019 1 2 0.79 20.07
3:49 pm 15:49 Cloudy with Thunderstorms 72 22 72 22 100 100 ENE 6 9 30.06 1018 3 5 0.86 21.84
3:53 pm 15:53 Cloudy with Thunderstorms 71 21.7 71 21.7 100 100 NNE 5 7 30.06 1018 4 6 0.87 22.10
4:22 pm 16:22 Cloudy with Light Rain 72 22.2 72 22.2 100 100 Calm 30.06 1018 6 10 0.03 0.76
4:46 pm 16:46 Mostly Cloudy with Light Rain 72 22.2 72 22.2 100 100 Calm 30.03 1017 10 16 0.04 1.02
4:53 pm 16:53 Mostly Cloudy 72 22.2 72 22.2 100 100 Calm 30.02 1017 10 16 0.04 1.02
5:53 pm 17:53 Mostly Sunny 74 23.3 73 22.8 97 97 Calm 29.99 1016 10 16 0.00 0.00
6:53 pm 18:53 Sunny 74 23.3 73 22.8 97 97 Calm 30.00 1016 10 16 0.00 0.00
7:53 pm 19:53 Mostly Sunny 73 22.8 73 22.8 100 100 Calm 30.00 1016 10 16 0.00 0.00
8:53 pm 20:53 Clear 72 22.2 72 22.2 100 100 Calm 29.99 1016 10 16 0.00 0.00
9:53 pm 21:53 Clear 72 22.2 72 22.2 100 100 Calm 30.01 1016 10 16 0.00 0.00
10:53 pm 22:53 Mostly Clear 71 21.7 71 21.7 100 100 Calm 30.01 1016 10 16 0.00 0.00
11:40 pm 23:40 Mostly Cloudy 71 21.7 71 21.7 100 100 Calm 30.03 1017 10 16 0.00 0.00
11:53 pm 23:53 Cloudy 71 21.7 71 21.7 100 100 Calm 30.01 1016 10 16 0.00 0.00

Powered by AerisWeather